{"data":{"norad_id":38041,"epoch":"2026-05-25T05:08:38.372064Z","epoch_age_seconds":67012,"freshness":"FRESH","line1":"1 38041U 11080B   26145.21433301 -.00000098  00000+0  31315-4 0  9995","line2":"2 38041  52.0055  88.9280 0000104 120.3657  19.1839 12.62268991665980","mean_motion":12.62268991,"eccentricity":1.04e-5,"inclination_deg":52.0055,"raan_deg":88.928,"arg_perigee_deg":120.3657,"mean_anomaly_deg":19.1839,"bstar":3.1315e-5,"rev_number":66598,"period_min":114.08028005657,"perigee_km":1413.5120400927,"apogee_km":1413.6741080782,"semimajor_km":7791.7300740854,"source":"CELESTRAK","updated_at":"2026-05-25T13:38:23.044563Z"}}